McAlester, OK

1:29 PM CST on February 26, 2017 (GMT -0600)
McAlester Regional

Weather History for KMLC - October, 2012

Change the Weather History Date:

Saturday, October 13, 2012

  Actual Average Record
Temperature  
Mean Temperature 72 °F -  
Max Temperature 81 °F 77 °F 95 °F (1963)
Min Temperature 64 °F 53 °F 32 °F (1977)
Cooling Degree Days 6    
Growing Degree Days 22 (Base 50)    
Moisture  
Dew Point 66 °F    
Average Humidity 87    
Maximum Humidity 100    
Minimum Humidity 74    
Precipitation  
Precipitation 0.17 in - - ()
Sea Level Pressure  
Sea Level Pressure 29.90 in    
Wind  
Wind Speed 11 mph (South)    
Max Wind Speed 25 mph    
Max Gust Speed 41 mph    
Visibility 8 miles    
Events Rain , Thunderstorm    
Averages and records for this station are not official NWS values.
T = Trace of Precipitation, MM = Missing Value Source: NWS Daily Summary

Daily Weather History Graph

Daily Weather History Graph

Search for Another Location

Airport or City:

Trip Planner

Search our weather history database for the weather conditions in past years. The results will help you decide how hot, cold, wet, or windy it might be!

Date:

Astronomy

Oct. 13, 2012 Rise Set
Actual Time 7:27 AM CDT 6:50 PM CDT
Civil Twilight 7:02 AM CDT 7:15 PM CDT
Nautical Twilight 6:32 AM CDT 7:44 PM CDT
Astronomical Twilight 6:03 AM CDT 8:14 PM CDT
Moon 5:22 AM CDT (10/13) 5:32 PM CDT (10/13)
Length of Visible Light 12h 13m
Length of Day
11h 22m
Waning Crescent, 5% of the Moon is Illuminated
Oct 13
Waning Crescent
Oct 15
New
Oct 21
First Quarter
Oct 29
Full
Nov 6
Last Quarter

Hourly Weather History & Observations

Time (CDT) Temp. Dew Point Humidity Pressure Visibility Wind Dir Wind Speed Gust Speed Precip Events Conditions
12:53 AM 72.0 °F 64.9 °F 78% 30.06 in 10.0 mi SSE 6.9 mph - N/A   Partly Cloudy
1:53 AM 70.0 °F 64.9 °F 84% 30.04 in 10.0 mi SSE 6.9 mph - N/A   Clear
2:53 AM 70.0 °F 64.0 °F 81% 30.03 in 10.0 mi SSE 6.9 mph - N/A   Clear
3:53 AM 70.0 °F 64.0 °F 81% 30.02 in 10.0 mi Variable 5.8 mph - N/A   Clear
4:53 AM 70.0 °F 64.0 °F 81% 30.03 in 10.0 mi Variable 6.9 mph - N/A   Clear
5:53 AM 70.0 °F 64.9 °F 84% 30.03 in 10.0 mi South 8.1 mph - N/A   Mostly Cloudy
6:53 AM 69.1 °F 66.0 °F 90% 30.03 in 10.0 mi South 8.1 mph - N/A   Partly Cloudy
7:34 AM 69.8 °F 66.2 °F 88% 30.05 in 10.0 mi South 9.2 mph 17.3 mph N/A   Mostly Cloudy
7:53 AM 69.1 °F 66.9 °F 93% 30.02 in 10.0 mi South 9.2 mph 19.6 mph N/A   Scattered Clouds
8:40 AM 69.8 °F 66.2 °F 88% 30.04 in 10.0 mi South 9.2 mph 23.0 mph N/A   Mostly Cloudy
8:53 AM 71.1 °F 66.9 °F 87% 30.02 in 10.0 mi South 12.7 mph 21.9 mph N/A   Mostly Cloudy
9:53 AM 72.0 °F 66.9 °F 84% 30.02 in 10.0 mi South 11.5 mph 24.2 mph N/A   Overcast
10:53 AM 73.0 °F 68.0 °F 84% 30.00 in 10.0 mi South 9.2 mph 20.7 mph N/A   Overcast
11:53 AM 75.9 °F 69.1 °F 79% 29.94 in 10.0 mi South 15.0 mph 27.6 mph N/A   Overcast
12:53 PM 75.9 °F 69.1 °F 79% 29.92 in 10.0 mi South 10.4 mph 25.3 mph N/A   Overcast
1:40 PM 78.8 °F 69.8 °F 74% 29.91 in 10.0 mi South 13.8 mph 23.0 mph N/A   Overcast
1:53 PM 79.0 °F 70.0 °F 74% 29.88 in 10.0 mi South 17.3 mph 25.3 mph N/A   Overcast
2:53 PM 78.8 °F 69.8 °F 74% 29.87 in 10.0 mi South 11.5 mph 19.6 mph N/A   Overcast
3:53 PM 78.1 °F 69.1 °F 74% 29.82 in 10.0 mi South 11.5 mph 20.7 mph N/A   Overcast
4:53 PM 73.9 °F 70.0 °F 87% 29.81 in 10.0 mi South 8.1 mph - 0.06 in Rain Light Rain
5:53 PM 75.0 °F 69.1 °F 82% 29.78 in 10.0 mi South 8.1 mph 16.1 mph 0.00 in   Overcast
7:39 PM 73.4 °F 68.0 °F 83% 29.81 in 5.0 mi South 10.4 mph 23.0 mph N/A Rain , Thunderstorm Light Thunderstorms and Rain
7:53 PM 71.1 °F 66.0 °F 84% 29.86 in 5.0 mi West 20.7 mph 29.9 mph 0.08 in Rain , Thunderstorm Light Thunderstorms and Rain
7:56 PM 69.8 °F 66.2 °F 88% 29.87 in 1.8 mi WSW 25.3 mph 34.5 mph N/A Rain , Thunderstorm Heavy Thunderstorms and Rain
7:59 PM 68.0 °F 64.4 °F 88% 29.86 in 1.2 mi WSW 19.6 mph 34.5 mph 0.19 in Rain , Thunderstorm Heavy Thunderstorms and Rain
8:06 PM 66.2 °F 64.4 °F 94% 29.87 in 2.0 mi WSW 18.4 mph 29.9 mph 0.26 in Rain , Thunderstorm Heavy Thunderstorms and Rain
8:12 PM 66.2 °F 64.4 °F 94% 29.88 in 1.5 mi WSW 19.6 mph 28.8 mph 0.44 in Rain , Thunderstorm Heavy Thunderstorms and Rain
8:19 PM 66.2 °F 64.4 °F 94% 29.85 in 1.2 mi West 15.0 mph 27.6 mph N/A Rain , Thunderstorm Heavy Thunderstorms and Rain
8:33 PM 66.2 °F 64.4 °F 94% 29.78 in 1.2 mi South 16.1 mph 29.9 mph 0.90 in Rain , Thunderstorm Heavy Thunderstorms and Rain
8:36 PM 68.0 °F 64.4 °F 88% 29.75 in 2.0 mi South 23.0 mph 39.1 mph N/A Rain , Thunderstorm Heavy Thunderstorms and Rain
8:48 PM 69.8 °F 66.2 °F 88% 29.78 in 3.0 mi South 18.4 mph 41.4 mph N/A Rain , Thunderstorm Heavy Thunderstorms and Rain
8:53 PM 69.8 °F 66.2 °F 88% 29.78 in 3.0 mi South 19.6 mph 34.5 mph N/A Rain , Thunderstorm Thunderstorms and Rain
9:50 PM 66.2 °F 64.4 °F 94% 29.81 in 10.0 mi SSW 12.7 mph - 0.03 in Thunderstorm Mostly Cloudy
9:53 PM 66.0 °F 64.0 °F 93% 29.78 in 10.0 mi SSW 12.7 mph 18.4 mph 0.03 in Rain , Thunderstorm Light Rain
10:32 PM 64.4 °F 64.4 °F 100% 29.81 in 10.0 mi South 9.2 mph - 0.01 in   Scattered Clouds
10:53 PM 66.2 °F 64.4 °F 94% 29.82 in 10.0 mi SSW 10.4 mph 17.3 mph N/A   Overcast
11:32 PM 66.2 °F 66.2 °F 100% 29.80 in 10.0 mi South 6.9 mph - 0.00 in   Scattered Clouds
11:53 PM 66.2 °F 66.2 °F 100% 29.81 in 10.0 mi South 6.9 mph - N/A   Partly Cloudy